UAL1446 MRLB-KEWR

Flight info

Callsign UAL1446
Flight time 4h 45m
Altitude 34000
Route LISPA1S LISPA DCT BTO UB881 CUN UM219 MYDIA M219 CIGAR DCT DEANR Q109 CAMJO Q99 QUART PHLBO4
Aircraft B738/M-SDE2E3FGHIRWXY/LB1

Departure

Time 2026-05-04 19:46
Airport Daniel Oduber Quirós International Airport (MRLB)

Arrival

Time 2026-05-05 00:31
Airport Newark Liberty International Airport (KEWR)
Time Latitude Longitude Altitude Speed Heading
2026-05-04 19:34 10.59959 -85.53616 277 ft 0 kts 339°
2026-05-04 19:35 10.59945 -85.53610 277 ft 2 kts 339°
2026-05-04 19:35 10.59931 -85.53605 277 ft 2 kts 339°
2026-05-04 19:36 10.59917 -85.53599 277 ft 2 kts 339°
2026-05-04 19:36 10.59903 -85.53594 277 ft 2 kts 339°
2026-05-04 19:36 10.59891 -85.53590 277 ft 0 kts 339°
2026-05-04 19:36 10.59882 -85.53584 277 ft 2 kts 298°
2026-05-04 19:37 10.59880 -85.53573 277 ft 0 kts 254°
2026-05-04 19:37 10.59880 -85.53574 277 ft 2 kts 257°
2026-05-04 19:37 10.59875 -85.53590 277 ft 0 kts 250°
2026-05-04 19:39 10.59873 -85.53595 277 ft 2 kts 250°
2026-05-04 19:39 10.59863 -85.53625 277 ft 6 kts 250°
2026-05-04 19:39 10.59840 -85.53687 277 ft 11 kts 250°
2026-05-04 19:40 10.59807 -85.53777 277 ft 14 kts 249°
2026-05-04 19:40 10.59777 -85.53858 277 ft 9 kts 249°
2026-05-04 19:40 10.59737 -85.53873 277 ft 7 kts 160°
2026-05-04 19:40 10.59674 -85.53850 277 ft 11 kts 159°
2026-05-04 19:41 10.59590 -85.53831 277 ft 13 kts 193°
2026-05-04 19:41 10.59527 -85.53919 277 ft 19 kts 250°
2026-05-04 19:41 10.59475 -85.54066 277 ft 25 kts 250°
2026-05-04 19:41 10.59413 -85.54239 277 ft 26 kts 250°
2026-05-04 19:42 10.59349 -85.54413 277 ft 26 kts 249°
2026-05-04 19:42 10.59285 -85.54585 277 ft 25 kts 249°
2026-05-04 19:42 10.59222 -85.54757 277 ft 25 kts 252°
2026-05-04 19:42 10.59168 -85.54927 277 ft 25 kts 250°
2026-05-04 19:43 10.59106 -85.55095 277 ft 25 kts 250°
2026-05-04 19:43 10.59046 -85.55260 277 ft 24 kts 250°
2026-05-04 19:43 10.59061 -85.55428 277 ft 24 kts 295°
2026-05-04 19:43 10.59110 -85.55560 277 ft 18 kts 266°
2026-05-04 19:44 10.59062 -85.55659 277 ft 12 kts 206°
2026-05-04 19:44 10.58982 -85.55645 277 ft 11 kts 159°
2026-05-04 19:44 10.58926 -85.55621 277 ft 4 kts 136°
2026-05-04 19:44 10.58924 -85.55602 277 ft 0 kts 72°
2026-05-04 19:45 10.58936 -85.55563 277 ft 28 kts 71°
2026-05-04 19:45 10.59088 -85.55142 277 ft 97 kts 70°
2026-05-04 19:45 10.59392 -85.54292 277 ft 155 kts 70°
2026-05-04 19:46 10.59805 -85.53144 493 ft 181 kts 71°
2026-05-04 19:46 10.60224 -85.51994 1299 ft 171 kts 70°
2026-05-04 19:46 10.60645 -85.50864 1648 ft 180 kts 71°
2026-05-04 19:46 10.61090 -85.49631 1930 ft 193 kts 71°
2026-05-04 19:47 10.61568 -85.48290 2189 ft 211 kts 70°
2026-05-04 19:47 10.62354 -85.46955 2384 ft 233 kts 42°
2026-05-04 19:47 10.63843 -85.46261 2742 ft 250 kts
2026-05-04 19:47 10.65628 -85.46362 3172 ft 263 kts 353°
2026-05-04 19:48 10.67445 -85.46720 3679 ft 269 kts 352°
2026-05-04 19:48 10.69317 -85.47073 4240 ft 273 kts 354°
2026-05-04 19:48 10.71200 -85.47370 4824 ft 275 kts 355°
2026-05-04 19:48 10.73084 -85.47636 5435 ft 277 kts 356°
2026-05-04 19:49 10.75017 -85.47901 6060 ft 279 kts 356°
2026-05-04 19:49 10.76946 -85.48167 6692 ft 281 kts 356°
2026-05-04 19:49 10.78902 -85.48437 7273 ft 284 kts 357°
2026-05-04 19:49 10.80863 -85.48653 7837 ft 287 kts 358°
2026-05-04 19:50 10.82878 -85.48830 8395 ft 290 kts 359°
2026-05-04 19:50 10.84892 -85.48993 8950 ft 292 kts 359°
2026-05-04 19:50 10.86929 -85.49164 9548 ft 295 kts 359°
2026-05-04 19:50 10.88972 -85.49342 10093 ft 298 kts 358°
2026-05-04 19:51 10.91092 -85.49531 10446 ft 309 kts 358°
2026-05-04 19:51 10.93282 -85.49725 10700 ft 322 kts 358°
2026-05-04 19:51 10.95558 -85.49927 10905 ft 337 kts 357°
2026-05-04 19:51 10.97959 -85.50143 11087 ft 352 kts 357°
2026-05-04 19:52 11.00474 -85.50373 11290 ft 365 kts 357°
2026-05-04 19:52 11.03028 -85.50608 11690 ft 371 kts 356°
2026-05-04 19:52 11.05594 -85.50844 12166 ft 374 kts 356°
2026-05-04 19:52 11.08211 -85.51083 12646 ft 377 kts 356°
2026-05-04 19:53 11.10864 -85.51324 13153 ft 379 kts 356°
2026-05-04 19:53 11.13503 -85.51564 13665 ft 382 kts 356°
2026-05-04 19:53 11.16128 -85.51795 14169 ft 384 kts 357°
2026-05-04 19:53 11.18822 -85.51836 14693 ft 385 kts
2026-05-04 19:54 11.21509 -85.51664 15194 ft 387 kts
2026-05-04 19:54 11.24215 -85.51389 15725 ft 389 kts
2026-05-04 19:54 11.26896 -85.51087 16206 ft 391 kts
2026-05-04 19:54 11.29621 -85.50783 16673 ft 394 kts
2026-05-04 19:55 11.32361 -85.50492 17166 ft 395 kts
2026-05-04 19:55 11.35123 -85.50236 17635 ft 398 kts
2026-05-04 19:55 11.37885 -85.50146 18025 ft 402 kts 359°
2026-05-04 19:55 11.40703 -85.50447 18473 ft 406 kts 351°
2026-05-04 19:56 11.43457 -85.51067 18930 ft 408 kts 346°
2026-05-04 19:56 11.46195 -85.51853 19322 ft 411 kts 344°
2026-05-04 19:56 11.48950 -85.52719 19797 ft 412 kts 343°
2026-05-04 19:56 11.51696 -85.53607 20255 ft 414 kts 342°
2026-05-04 19:57 11.54445 -85.54495 20659 ft 417 kts 342°
2026-05-04 19:57 11.57243 -85.55392 21047 ft 419 kts 342°
2026-05-04 19:57 11.60042 -85.56279 21495 ft 420 kts 342°
2026-05-04 19:57 11.62832 -85.57156 21832 ft 424 kts 342°
2026-05-04 19:58 11.65666 -85.58041 22238 ft 426 kts 342°
2026-05-04 19:58 11.68506 -85.58924 22623 ft 428 kts 342°
2026-05-04 19:58 11.71385 -85.59817 22983 ft 431 kts 343°
2026-05-04 19:58 11.74255 -85.60706 23299 ft 434 kts 342°
2026-05-04 19:59 11.77151 -85.61603 23702 ft 436 kts 342°
2026-05-04 19:59 11.80091 -85.62513 24045 ft 438 kts 342°
2026-05-04 19:59 11.83029 -85.63422 24356 ft 442 kts 342°
2026-05-04 19:59 11.85965 -85.64330 24697 ft 444 kts 342°
2026-05-04 20:00 11.88928 -85.65247 25039 ft 446 kts 342°
2026-05-04 20:00 11.91933 -85.66177 25335 ft 449 kts 342°
2026-05-04 20:00 11.94938 -85.67109 25667 ft 451 kts 342°
2026-05-04 20:00 11.97913 -85.68031 25978 ft 453 kts 342°
2026-05-04 20:01 12.00980 -85.68980 26283 ft 456 kts 342°
2026-05-04 20:01 12.04011 -85.69920 26597 ft 458 kts 342°
2026-05-04 20:01 12.07055 -85.70863 26885 ft 460 kts 342°
2026-05-04 20:01 12.10167 -85.71830 27152 ft 464 kts 342°
2026-05-04 20:02 12.13276 -85.72796 27481 ft 465 kts 342°
2026-05-04 20:02 12.16376 -85.73758 27788 ft 466 kts 342°
2026-05-04 20:02 12.19499 -85.74728 28049 ft 469 kts 342°
2026-05-04 20:02 12.22635 -85.75700 28321 ft 471 kts 342°
2026-05-04 20:03 12.25767 -85.76672 28594 ft 473 kts 342°
2026-05-04 20:03 12.28908 -85.77648 28888 ft 474 kts 342°
2026-05-04 20:03 12.32094 -85.78638 29312 ft 472 kts 342°
2026-05-04 20:03 12.35219 -85.79610 29820 ft 469 kts 342°
2026-05-04 20:04 12.38343 -85.80580 30213 ft 468 kts 342°
2026-05-04 20:04 12.41458 -85.81549 30517 ft 468 kts 342°
2026-05-04 20:04 12.44549 -85.82510 30919 ft 466 kts 342°
2026-05-04 20:04 12.47664 -85.83478 31290 ft 465 kts 342°
2026-05-04 20:05 12.50767 -85.84444 31551 ft 466 kts 342°
2026-05-04 20:05 12.53885 -85.85416 31894 ft 464 kts 342°
2026-05-04 20:05 12.56959 -85.86372 32282 ft 462 kts 342°
2026-05-04 20:05 12.60041 -85.87331 32595 ft 461 kts 342°
2026-05-04 20:06 12.63109 -85.88287 32944 ft 460 kts 342°
2026-05-04 20:06 12.66159 -85.89237 33242 ft 460 kts 342°
2026-05-04 20:06 12.69238 -85.90198 33522 ft 460 kts 342°
2026-05-04 20:06 12.72312 -85.91157 33841 ft 459 kts 342°
2026-05-04 20:07 12.75362 -85.92108 34165 ft 458 kts 342°
2026-05-04 20:07 12.78378 -85.93049 34461 ft 457 kts 342°
2026-05-04 20:07 12.81445 -85.94006 34774 ft 456 kts 342°
2026-05-04 20:07 12.84472 -85.94950 35003 ft 455 kts 342°
2026-05-04 20:08 12.87499 -85.95895 35015 ft 457 kts 342°
2026-05-04 20:08 12.93574 -85.97792 35035 ft 454 kts 342°
2026-05-04 20:09 12.99690 -85.99703 35062 ft 454 kts 342°
2026-05-04 20:09 13.05792 -86.01611 35070 ft 455 kts 342°
2026-05-04 20:10 13.11895 -86.03520 35074 ft 456 kts 342°
2026-05-04 20:10 13.17955 -86.05416 35085 ft 455 kts 342°
2026-05-04 20:11 13.24037 -86.07320 35094 ft 454 kts 342°
2026-05-04 20:11 13.30063 -86.09208 35084 ft 454 kts 342°
2026-05-04 20:12 13.36115 -86.11105 35061 ft 453 kts 342°
2026-05-04 20:12 13.42185 -86.13008 35044 ft 454 kts 341°
2026-05-04 20:13 13.48220 -86.14902 35025 ft 453 kts 341°
2026-05-04 20:13 13.54283 -86.16805 35026 ft 453 kts 342°
2026-05-04 20:14 13.60295 -86.18692 35041 ft 453 kts 342°
2026-05-04 20:14 13.66340 -86.20592 35049 ft 453 kts 341°
2026-05-04 20:15 13.72382 -86.22491 35048 ft 453 kts 341°
2026-05-04 20:15 13.78401 -86.24385 35047 ft 452 kts 341°
2026-05-04 20:16 13.84437 -86.26285 35041 ft 452 kts 341°
2026-05-04 20:16 13.90460 -86.28182 35051 ft 452 kts 341°
2026-05-04 20:17 13.96488 -86.30082 35054 ft 452 kts 341°
2026-05-04 20:17 14.02506 -86.31979 35064 ft 451 kts 341°
2026-05-04 20:18 14.08529 -86.33878 35065 ft 452 kts 341°
2026-05-04 20:18 14.14571 -86.35784 35073 ft 452 kts 341°
2026-05-04 20:19 14.20602 -86.37688 35074 ft 452 kts 341°
2026-05-04 20:19 14.26640 -86.39596 35079 ft 452 kts 341°
2026-05-04 20:20 14.32661 -86.41499 35064 ft 452 kts 341°
2026-05-04 20:20 14.38685 -86.43404 35047 ft 452 kts 341°
2026-05-04 20:21 14.44705 -86.45309 35028 ft 453 kts 341°
2026-05-04 20:21 14.53762 -86.48177 35009 ft 452 kts 341°
2026-05-04 20:22 14.59769 -86.50080 35017 ft 452 kts 341°
2026-05-04 20:22 14.65802 -86.51992 35027 ft 452 kts 341°
2026-05-04 20:23 14.71814 -86.53899 35037 ft 452 kts 341°
2026-05-04 20:23 14.77822 -86.55805 35047 ft 452 kts 341°
2026-05-04 20:24 14.83868 -86.57725 35068 ft 452 kts 341°
2026-05-04 20:24 14.89887 -86.59639 35076 ft 452 kts 341°
2026-05-04 20:25 14.95915 -86.61557 35094 ft 452 kts 341°
2026-05-04 20:25 15.01908 -86.63461 35100 ft 451 kts 341°
2026-05-04 20:26 15.07962 -86.65389 35096 ft 452 kts 340°
2026-05-04 20:26 15.13971 -86.67303 35081 ft 452 kts 340°
2026-05-04 20:27 15.20007 -86.69228 35064 ft 452 kts 340°
2026-05-04 20:27 15.26037 -86.71152 35038 ft 451 kts 340°
2026-05-04 20:28 15.32012 -86.73060 35065 ft 451 kts 340°
2026-05-04 20:28 15.38037 -86.74984 35098 ft 451 kts 340°
2026-05-04 20:29 15.44022 -86.76895 35109 ft 451 kts 340°
2026-05-04 20:29 15.50059 -86.78825 35125 ft 451 kts 340°
2026-05-04 20:30 15.56054 -86.80746 35061 ft 452 kts 340°
2026-05-04 20:30 15.62080 -86.82677 35009 ft 450 kts 340°
2026-05-04 20:31 15.68078 -86.84594 34969 ft 450 kts 340°
2026-05-04 20:31 15.74176 -86.86170 34940 ft 453 kts 349°
2026-05-04 20:32 15.80521 -86.86626 34933 ft 457 kts 356°
2026-05-04 20:32 15.86901 -86.86582 34927 ft 458 kts 358°
2026-05-04 20:33 15.93269 -86.86474 34923 ft 459 kts 358°
2026-05-04 20:33 15.99664 -86.86398 34916 ft 457 kts 357°
2026-05-04 20:34 16.06049 -86.86352 34912 ft 457 kts 357°
2026-05-04 20:34 16.12451 -86.86332 34913 ft 456 kts 356°
2026-05-04 20:35 16.18764 -86.86400 34910 ft 456 kts 356°
2026-05-04 20:35 16.25153 -86.86516 34909 ft 457 kts 356°
2026-05-04 20:36 16.31520 -86.86633 34911 ft 456 kts 355°
2026-05-04 20:36 16.37869 -86.86742 34908 ft 457 kts 355°
2026-05-04 20:37 16.44227 -86.86845 34909 ft 457 kts 356°
2026-05-04 20:37 16.50587 -86.86945 34908 ft 455 kts 355°
2026-05-04 20:38 16.56929 -86.87044 34907 ft 456 kts 355°
2026-05-04 20:38 16.63308 -86.87143 34906 ft 455 kts 355°
2026-05-04 20:39 16.69655 -86.87241 34906 ft 455 kts 355°
2026-05-04 20:39 16.76011 -86.87341 34907 ft 456 kts 355°
2026-05-04 20:40 16.82368 -86.87441 34905 ft 457 kts 355°
2026-05-04 20:40 16.88714 -86.87540 34908 ft 456 kts 355°
2026-05-04 20:41 16.95112 -86.87641 34906 ft 457 kts 355°
2026-05-04 20:41 17.01437 -86.87740 34913 ft 455 kts 355°
2026-05-04 20:42 17.07771 -86.87837 34908 ft 454 kts 355°
2026-05-04 20:42 17.14108 -86.87937 34912 ft 455 kts 355°
2026-05-04 20:43 17.20477 -86.88036 34914 ft 454 kts 355°
2026-05-04 20:43 17.26806 -86.88136 34917 ft 455 kts 355°
2026-05-04 20:44 17.33131 -86.88236 34911 ft 454 kts 355°
2026-05-04 20:44 17.39495 -86.88335 34911 ft 453 kts 355°
2026-05-04 20:45 17.45773 -86.88433 34917 ft 453 kts 355°
2026-05-04 20:45 17.52088 -86.88532 34920 ft 453 kts 355°
2026-05-04 20:46 17.58417 -86.88632 34918 ft 453 kts 355°
2026-05-04 20:46 17.64738 -86.88733 34918 ft 453 kts 355°
2026-05-04 20:47 17.71035 -86.88832 34919 ft 452 kts 355°
2026-05-04 20:47 17.77345 -86.88932 34924 ft 452 kts 355°
2026-05-04 20:48 17.83617 -86.89031 34925 ft 451 kts 355°
2026-05-04 20:48 17.89931 -86.89131 34923 ft 452 kts 355°
2026-05-04 20:49 17.96223 -86.89226 34922 ft 451 kts 355°
2026-05-04 20:49 18.02510 -86.89307 34923 ft 450 kts 355°
2026-05-04 20:50 18.08780 -86.89387 34923 ft 449 kts 355°
2026-05-04 20:50 18.15064 -86.89469 34925 ft 450 kts 355°
2026-05-04 20:51 18.21293 -86.89550 34921 ft 448 kts 355°
2026-05-04 20:51 18.27561 -86.89632 34916 ft 448 kts 355°
2026-05-04 20:52 18.33797 -86.89716 34912 ft 449 kts 355°
2026-05-04 20:52 18.40074 -86.89799 34915 ft 448 kts 355°
2026-05-04 20:53 18.46317 -86.89880 34916 ft 448 kts 355°
2026-05-04 20:53 18.52541 -86.89960 34916 ft 448 kts 355°
2026-05-04 20:54 18.58809 -86.90041 34915 ft 447 kts 355°
2026-05-04 20:54 18.65015 -86.90121 34919 ft 447 kts 355°
2026-05-04 20:55 18.71231 -86.90200 34919 ft 446 kts 355°
2026-05-04 20:55 18.77454 -86.90280 34925 ft 447 kts 355°
2026-05-04 20:56 18.83684 -86.90361 34926 ft 447 kts 355°
2026-05-04 20:56 18.89929 -86.90442 34926 ft 446 kts 355°
2026-05-04 20:57 18.96097 -86.90522 34925 ft 445 kts 354°
2026-05-04 20:57 19.02307 -86.90603 34927 ft 444 kts 354°
2026-05-04 20:58 19.08485 -86.90670 34927 ft 443 kts 355°
2026-05-04 20:58 19.14683 -86.90696 34930 ft 444 kts 355°
2026-05-04 20:59 19.20841 -86.90711 34930 ft 442 kts 355°
2026-05-04 20:59 19.27022 -86.90728 34931 ft 441 kts 355°
2026-05-04 21:00 19.33156 -86.90749 34932 ft 441 kts 355°
2026-05-04 21:00 19.39286 -86.90771 34928 ft 438 kts 355°
2026-05-04 21:01 19.45424 -86.90794 34928 ft 439 kts 355°
2026-05-04 21:01 19.51518 -86.90817 34927 ft 435 kts 355°
2026-05-04 21:02 19.57579 -86.90842 34928 ft 438 kts 355°
2026-05-04 21:02 19.63673 -86.90864 34926 ft 435 kts 355°
2026-05-04 21:03 19.69747 -86.90883 34931 ft 437 kts 355°
2026-05-04 21:03 19.75849 -86.90872 34940 ft 435 kts 356°
2026-05-04 21:04 19.81913 -86.90848 34943 ft 436 kts 356°
2026-05-04 21:04 19.87974 -86.90829 34947 ft 434 kts 356°
2026-05-04 21:05 19.94031 -86.90810 34944 ft 434 kts 356°
2026-05-04 21:05 20.00109 -86.90791 34946 ft 435 kts 356°
2026-05-04 21:06 20.06150 -86.90773 34945 ft 432 kts 356°
2026-05-04 21:06 20.12215 -86.90771 34945 ft 433 kts 355°
2026-05-04 21:07 20.18246 -86.90833 34942 ft 435 kts 355°
2026-05-04 21:07 20.24277 -86.90907 34933 ft 431 kts 355°
2026-05-04 21:08 20.30284 -86.90982 34930 ft 432 kts 355°
2026-05-04 21:08 20.36315 -86.91053 34933 ft 431 kts 355°
2026-05-04 21:09 20.42307 -86.91115 34936 ft 429 kts 355°
2026-05-04 21:09 20.48302 -86.91178 34936 ft 431 kts 355°
2026-05-04 21:10 20.54320 -86.90994 34935 ft 433 kts 360°
2026-05-04 21:10 20.60337 -86.90380 34935 ft 435 kts
2026-05-04 21:11 20.66356 -86.89692 34935 ft 436 kts
2026-05-04 21:11 20.72377 -86.89025 34939 ft 432 kts
2026-05-04 21:12 20.78405 -86.88381 34937 ft 434 kts
2026-05-04 21:12 20.84433 -86.87753 34940 ft 435 kts
2026-05-04 21:13 20.90447 -86.87128 34942 ft 431 kts
2026-05-04 21:13 20.96416 -86.86511 34944 ft 433 kts
2026-05-04 21:14 21.02441 -86.85861 34945 ft 432 kts
2026-05-04 21:14 21.08393 -86.84738 34941 ft 435 kts
2026-05-04 21:15 21.14344 -86.83334 34942 ft 438 kts
2026-05-04 21:15 21.20305 -86.81908 34942 ft 437 kts
2026-05-04 21:16 21.26260 -86.80510 34940 ft 438 kts
2026-05-04 21:16 21.32194 -86.79140 34940 ft 437 kts
2026-05-04 21:17 21.38174 -86.77771 34941 ft 438 kts
2026-05-04 21:17 21.44081 -86.76420 34938 ft 435 kts
2026-05-04 21:18 21.50025 -86.75060 34938 ft 434 kts
2026-05-04 21:18 21.55941 -86.73708 34940 ft 435 kts
2026-05-04 21:19 21.61891 -86.72345 34938 ft 437 kts
2026-05-04 21:19 21.67840 -86.70977 34940 ft 435 kts
2026-05-04 21:20 21.73766 -86.69614 34943 ft 435 kts
2026-05-04 21:20 21.79722 -86.68246 34938 ft 435 kts
2026-05-04 21:21 21.85655 -86.66882 34936 ft 435 kts
2026-05-04 21:21 21.91589 -86.65516 34927 ft 434 kts
2026-05-04 21:22 21.97508 -86.64152 34926 ft 437 kts
2026-05-04 21:22 22.03466 -86.62780 34931 ft 436 kts
2026-05-04 21:23 22.09373 -86.61415 34930 ft 433 kts
2026-05-04 21:23 22.15317 -86.60049 34929 ft 435 kts
2026-05-04 21:24 22.21229 -86.58680 34930 ft 430 kts
2026-05-04 21:24 22.27107 -86.57323 34934 ft 434 kts
2026-05-04 21:25 22.33023 -86.55952 34933 ft 433 kts
2026-05-04 21:25 22.38899 -86.54594 34935 ft 433 kts
2026-05-04 21:26 22.44807 -86.53225 34933 ft 432 kts
2026-05-04 21:26 22.50669 -86.51868 34938 ft 431 kts
2026-05-04 21:27 22.56555 -86.50504 34940 ft 433 kts
2026-05-04 21:27 22.62467 -86.49131 34940 ft 432 kts
2026-05-04 21:28 22.68345 -86.47760 34941 ft 429 kts
2026-05-04 21:28 22.74194 -86.46399 34947 ft 433 kts
2026-05-04 21:29 22.80100 -86.45022 34946 ft 429 kts
2026-05-04 21:29 22.85980 -86.43649 34946 ft 432 kts
2026-05-04 21:30 22.91840 -86.42281 34949 ft 431 kts
2026-05-04 21:30 22.97706 -86.40909 34948 ft 431 kts
2026-05-04 21:31 23.06510 -86.38848 34946 ft 428 kts
2026-05-04 21:32 23.12332 -86.37484 34951 ft 428 kts
2026-05-04 21:32 23.18178 -86.36113 34953 ft 430 kts
2026-05-04 21:33 23.24049 -86.34735 34951 ft 430 kts
2026-05-04 21:33 23.29881 -86.33365 34954 ft 430 kts
2026-05-04 21:34 23.35752 -86.31989 34953 ft 430 kts
2026-05-04 21:34 23.41633 -86.30605 34957 ft 430 kts
2026-05-04 21:35 23.47477 -86.29227 34960 ft 430 kts
2026-05-04 21:35 23.53323 -86.27848 34960 ft 427 kts
2026-05-04 21:36 23.59135 -86.26478 34960 ft 428 kts
2026-05-04 21:36 23.64998 -86.25094 34959 ft 430 kts
2026-05-04 21:37 23.70872 -86.23708 34965 ft 431 kts
2026-05-04 21:37 23.76733 -86.22321 34960 ft 429 kts
2026-05-04 21:38 23.82547 -86.20944 34965 ft 429 kts
2026-05-04 21:38 23.88375 -86.19562 34970 ft 429 kts
2026-05-04 21:39 23.94236 -86.18171 34967 ft 429 kts
2026-05-04 21:39 24.00056 -86.16759 34967 ft 429 kts
2026-05-04 21:40 24.05771 -86.14637 34970 ft 439 kts 17°
2026-05-04 21:40 24.11249 -86.11590 34969 ft 446 kts 21°
2026-05-04 21:41 24.16684 -86.08203 34971 ft 446 kts 22°
2026-05-04 21:41 24.22037 -86.04820 34974 ft 445 kts 22°
2026-05-04 21:42 24.27408 -86.01446 34972 ft 446 kts 22°
2026-05-04 21:42 24.32809 -85.98071 34972 ft 446 kts 22°
2026-05-04 21:43 24.38184 -85.94721 34976 ft 443 kts 21°
2026-05-04 21:43 24.43544 -85.91385 34977 ft 446 kts 21°
2026-05-04 21:44 24.48948 -85.88022 34977 ft 446 kts 21°
2026-05-04 21:44 24.54341 -85.84660 34979 ft 445 kts 21°
2026-05-04 21:45 24.59718 -85.81303 34977 ft 443 kts 21°
2026-05-04 21:45 24.65097 -85.77944 34979 ft 443 kts 21°
2026-05-04 21:46 24.70432 -85.74609 34982 ft 441 kts 21°
2026-05-04 21:46 24.75811 -85.71244 34982 ft 444 kts 21°
2026-05-04 21:47 24.81141 -85.67905 34984 ft 441 kts 21°
2026-05-04 21:47 24.86472 -85.64563 34986 ft 442 kts 21°
2026-05-04 21:48 24.91856 -85.61186 34987 ft 443 kts 20°
2026-05-04 21:48 24.97186 -85.57837 34988 ft 442 kts 21°
2026-05-04 21:49 25.02547 -85.54468 34989 ft 445 kts 21°
2026-05-04 21:49 25.07915 -85.51090 34988 ft 443 kts 20°
2026-05-04 21:50 25.13236 -85.47731 34986 ft 441 kts 20°
2026-05-04 21:50 25.18595 -85.44353 34989 ft 443 kts 20°
2026-05-04 21:51 25.23952 -85.40974 34989 ft 443 kts 20°
2026-05-04 21:51 25.29273 -85.37614 34989 ft 441 kts 19°
2026-05-04 21:52 25.34760 -85.34810 34987 ft 426 kts
2026-05-04 21:52 25.40506 -85.33649 34988 ft 416 kts 358°
2026-05-04 21:53 25.46254 -85.33087 34988 ft 411 kts 356°
2026-05-04 21:53 25.51950 -85.32587 34989 ft 411 kts 357°
2026-05-04 21:54 25.57680 -85.32054 34988 ft 413 kts 357°
2026-05-04 21:54 25.63389 -85.31486 34988 ft 412 kts 357°
2026-05-04 21:55 25.69113 -85.30907 34988 ft 412 kts 357°
2026-05-04 21:55 25.74817 -85.30324 34988 ft 414 kts 357°
2026-05-04 21:56 25.80561 -85.29730 34988 ft 413 kts 357°
2026-05-04 21:56 25.86301 -85.29135 34988 ft 412 kts 357°
2026-05-04 21:57 25.92022 -85.28545 34987 ft 410 kts 357°
2026-05-04 21:57 25.97692 -85.27960 34989 ft 412 kts 357°
2026-05-04 21:58 26.03395 -85.27373 34991 ft 412 kts 357°
2026-05-04 21:58 26.09090 -85.26781 34990 ft 409 kts 357°
2026-05-04 21:59 26.14771 -85.26197 34989 ft 411 kts 357°
2026-05-04 21:59 26.20457 -85.25607 34992 ft 410 kts 357°
2026-05-04 22:00 26.26159 -85.25017 34994 ft 410 kts 357°
2026-05-04 22:00 26.31844 -85.24423 34992 ft 409 kts 357°
2026-05-04 22:01 26.37544 -85.23613 34984 ft 415 kts
2026-05-04 22:01 26.43234 -85.21861 34989 ft 425 kts
2026-05-04 22:02 26.48796 -85.19640 34988 ft 428 kts 11°
2026-05-04 22:02 26.54374 -85.17318 34989 ft 424 kts 11°
2026-05-04 22:03 26.59934 -85.15020 34990 ft 427 kts 11°
2026-05-04 22:03 26.65526 -85.12728 34994 ft 427 kts 11°
2026-05-04 22:04 26.71086 -85.10451 34996 ft 424 kts 11°
2026-05-04 22:04 26.76660 -85.08180 34998 ft 426 kts 10°
2026-05-04 22:05 26.82235 -85.05907 34999 ft 426 kts 10°
2026-05-04 22:05 26.87840 -85.03619 35002 ft 428 kts 10°
2026-05-04 22:06 26.93403 -85.01344 35005 ft 424 kts 10°
2026-05-04 22:06 26.98947 -84.99076 35007 ft 426 kts 10°
2026-05-04 22:07 27.04498 -84.96806 35010 ft 427 kts 10°
2026-05-04 22:07 27.10103 -84.94512 35008 ft 428 kts 10°
2026-05-04 22:08 27.15692 -84.92212 35004 ft 427 kts 10°
2026-05-04 22:08 27.21336 -84.89893 35002 ft 425 kts 10°
2026-05-04 22:09 27.26898 -84.87603 34993 ft 427 kts 10°
2026-05-04 22:09 27.32523 -84.85294 34998 ft 430 kts 10°
2026-05-04 22:10 27.38120 -84.82982 35001 ft 428 kts 10°
2026-05-04 22:10 27.43749 -84.80659 35001 ft 428 kts 10°
2026-05-04 22:11 27.49229 -84.77847 35003 ft 442 kts 20°
2026-05-04 22:11 27.54328 -84.73784 35001 ft 452 kts 28°
2026-05-04 22:12 27.59229 -84.69144 35009 ft 458 kts 30°
2026-05-04 22:12 27.64050 -84.64440 35007 ft 460 kts 31°
2026-05-04 22:13 27.68885 -84.59727 35004 ft 459 kts 31°
2026-05-04 22:13 27.73734 -84.55030 34998 ft 459 kts 31°
2026-05-04 22:14 27.78581 -84.50351 34996 ft 461 kts 30°
2026-05-04 22:14 27.83451 -84.45658 34996 ft 460 kts 30°
2026-05-04 22:15 27.88341 -84.40942 34996 ft 462 kts 30°
2026-05-04 22:15 27.93226 -84.36224 34994 ft 462 kts 31°
2026-05-04 22:16 27.98084 -84.31525 34996 ft 461 kts 31°
2026-05-04 22:16 28.02981 -84.26790 34995 ft 462 kts 31°
2026-05-04 22:17 28.07852 -84.22069 34994 ft 463 kts 31°
2026-05-04 22:17 28.12760 -84.17305 35003 ft 463 kts 31°
2026-05-04 22:18 28.17665 -84.12542 35009 ft 465 kts 31°
2026-05-04 22:18 28.22544 -84.07793 35009 ft 464 kts 31°
2026-05-04 22:19 28.27454 -84.03014 35008 ft 466 kts 32°
2026-05-04 22:19 28.32375 -83.98215 35010 ft 464 kts 32°
2026-05-04 22:20 28.37284 -83.93420 35005 ft 467 kts 32°
2026-05-04 22:20 28.42188 -83.88626 35008 ft 467 kts 32°
2026-05-04 22:21 28.47130 -83.83789 35004 ft 468 kts 32°
2026-05-04 22:21 28.52064 -83.78951 35004 ft 465 kts 32°
2026-05-04 22:22 28.56989 -83.74119 35002 ft 470 kts 32°
2026-05-04 22:22 28.61883 -83.69309 35004 ft 467 kts 32°
2026-05-04 22:23 28.66827 -83.64445 35012 ft 468 kts 32°
2026-05-04 22:23 28.71743 -83.59604 35010 ft 468 kts 32°
2026-05-04 22:24 28.76648 -83.54765 35006 ft 468 kts 32°
2026-05-04 22:24 28.81594 -83.49882 35012 ft 470 kts 32°
2026-05-04 22:25 28.86504 -83.45023 35007 ft 467 kts 32°
2026-05-04 22:25 28.91425 -83.40152 35002 ft 471 kts 32°
2026-05-04 22:26 28.96360 -83.35261 35003 ft 470 kts 32°
2026-05-04 22:26 29.01325 -83.30331 35003 ft 470 kts 33°
2026-05-04 22:27 29.06253 -83.25435 34993 ft 472 kts 33°
2026-05-04 22:27 29.11215 -83.20493 34999 ft 471 kts 33°
2026-05-04 22:28 29.16142 -83.15581 34995 ft 470 kts 33°
2026-05-04 22:28 29.21082 -83.10654 34993 ft 473 kts 32°
2026-05-04 22:29 29.26289 -83.06210 34994 ft 459 kts 19°
2026-05-04 22:29 29.29202 -83.04758 35002 ft 448 kts 11°
2026-05-04 22:29 29.32132 -83.03706 34998 ft 443 kts
2026-05-04 22:30 29.38114 -83.01978 35000 ft 443 kts
2026-05-04 22:30 29.44113 -83.00348 35008 ft 444 kts
2026-05-04 22:31 29.50078 -82.98670 35012 ft 442 kts
2026-05-04 22:31 29.56076 -82.96934 35018 ft 446 kts
2026-05-04 22:32 29.62082 -82.95174 35016 ft 447 kts
2026-05-04 22:32 29.68116 -82.93390 35018 ft 444 kts
2026-05-04 22:33 29.74155 -82.91603 35013 ft 451 kts
2026-05-04 22:33 29.80203 -82.89806 35012 ft 447 kts
2026-05-04 22:34 29.86241 -82.88010 35016 ft 451 kts
2026-05-04 22:34 29.92344 -82.86195 35016 ft 448 kts
2026-05-04 22:35 29.98359 -82.84400 35015 ft 449 kts
2026-05-04 22:35 30.04423 -82.82594 35014 ft 450 kts
2026-05-04 22:36 30.10502 -82.80778 35018 ft 451 kts
2026-05-04 22:36 30.16594 -82.78957 35020 ft 450 kts
2026-05-04 22:37 30.22673 -82.77136 35018 ft 450 kts
2026-05-04 22:37 30.28732 -82.75320 35028 ft 450 kts
2026-05-04 22:38 30.34769 -82.73505 35020 ft 449 kts
2026-05-04 22:38 30.40850 -82.71680 35019 ft 450 kts
2026-05-04 22:39 30.46937 -82.69847 35018 ft 450 kts
2026-05-04 22:39 30.53036 -82.68054 35020 ft 448 kts
2026-05-04 22:40 30.59110 -82.66680 35019 ft 445 kts
2026-05-04 22:40 30.65246 -82.65463 35019 ft 445 kts
2026-05-04 22:41 30.71349 -82.64236 35020 ft 446 kts
2026-05-04 22:41 30.77426 -82.62972 35023 ft 446 kts
2026-05-04 22:42 30.83598 -82.61669 35017 ft 446 kts
2026-05-04 22:42 30.89714 -82.60364 35021 ft 447 kts
2026-05-04 22:43 30.95817 -82.59056 35025 ft 445 kts
2026-05-04 22:43 31.01934 -82.57740 35029 ft 446 kts
2026-05-04 22:44 31.08050 -82.56097 35022 ft 457 kts
2026-05-04 22:44 31.14004 -82.53275 35036 ft 469 kts 17°
2026-05-04 22:45 31.19852 -82.49793 35028 ft 469 kts 19°
2026-05-04 22:45 31.28509 -82.44395 35031 ft 472 kts 19°
2026-05-04 22:46 31.34336 -82.40786 35037 ft 470 kts 19°
2026-05-04 22:46 31.40113 -82.37231 35035 ft 472 kts 19°
2026-05-04 22:47 31.45910 -82.33682 35034 ft 470 kts 19°
2026-05-04 22:47 31.51716 -82.30131 35028 ft 472 kts 19°
2026-05-04 22:48 31.57525 -82.26572 35036 ft 469 kts 20°
2026-05-04 22:48 31.63352 -82.23003 35035 ft 472 kts 20°
2026-05-04 22:49 31.69162 -82.19434 35042 ft 470 kts 20°
2026-05-04 22:49 31.74961 -82.15865 34901 ft 468 kts 20°
2026-05-04 22:50 31.77866 -82.14077 35019 ft 469 kts 20°
2026-05-04 22:50 31.80764 -82.12296 34984 ft 473 kts 20°
2026-05-04 22:50 31.86591 -82.08706 35033 ft 472 kts 20°
2026-05-04 22:51 31.92432 -82.05101 35054 ft 473 kts 20°
2026-05-04 22:51 31.98240 -82.01508 35042 ft 471 kts 20°
2026-05-04 22:52 32.04019 -81.97926 35045 ft 469 kts 20°
2026-05-04 22:52 32.09846 -81.94315 35050 ft 471 kts 20°
2026-05-04 22:53 32.15663 -81.90709 35064 ft 472 kts 20°
2026-05-04 22:53 32.21496 -81.87229 35062 ft 470 kts 19°
2026-05-04 22:54 32.27409 -81.83793 35056 ft 471 kts 19°
2026-05-04 22:54 32.33306 -81.80360 35068 ft 471 kts 19°
2026-05-04 22:55 32.39141 -81.76943 35059 ft 469 kts 20°
2026-05-04 22:55 32.44983 -81.73509 35052 ft 468 kts 20°
2026-05-04 22:56 32.50860 -81.70046 35045 ft 469 kts 20°
2026-05-04 22:56 32.56721 -81.66582 35060 ft 470 kts 20°
2026-05-04 22:57 32.62588 -81.63107 35048 ft 469 kts 20°
2026-05-04 22:57 32.68435 -81.59640 35066 ft 470 kts 20°
2026-05-04 22:58 32.74276 -81.56171 35059 ft 469 kts 21°
2026-05-04 22:58 32.80115 -81.52697 35056 ft 468 kts 21°
2026-05-04 22:59 32.85942 -81.49226 35045 ft 468 kts 21°
2026-05-04 22:59 32.91774 -81.45751 35055 ft 470 kts 21°
2026-05-04 23:00 32.97605 -81.42269 35048 ft 468 kts 21°
2026-05-04 23:00 33.03403 -81.38800 35050 ft 468 kts 21°
2026-05-04 23:01 33.09236 -81.35303 35051 ft 468 kts 21°
2026-05-04 23:01 33.15073 -81.31802 35044 ft 468 kts 21°
2026-05-04 23:02 33.20911 -81.28294 35051 ft 469 kts 22°
2026-05-04 23:02 33.26739 -81.24788 35051 ft 469 kts 22°
2026-05-04 23:03 33.32585 -81.21265 35043 ft 468 kts 21°
2026-05-04 23:03 33.38385 -81.17765 35046 ft 468 kts 22°
2026-05-04 23:04 33.44206 -81.14245 35048 ft 468 kts 21°
2026-05-04 23:04 33.50040 -81.10713 35041 ft 467 kts 22°
2026-05-04 23:05 33.55833 -81.07200 35040 ft 467 kts 21°
2026-05-04 23:05 33.61639 -81.03675 35046 ft 468 kts 22°
2026-05-04 23:06 33.67456 -81.00137 35043 ft 466 kts 22°
2026-05-04 23:06 33.73247 -80.96610 35041 ft 467 kts 21°
2026-05-04 23:07 33.79050 -80.93071 35044 ft 467 kts 21°
2026-05-04 23:07 33.84775 -80.89378 35041 ft 470 kts 27°
2026-05-04 23:08 33.90169 -80.84894 35037 ft 472 kts 32°
2026-05-04 23:08 33.95372 -80.80046 35037 ft 475 kts 34°
2026-05-04 23:09 34.00530 -80.75118 35037 ft 473 kts 34°
2026-05-04 23:09 34.05692 -80.70194 35032 ft 474 kts 33°
2026-05-04 23:10 34.10849 -80.65299 35036 ft 474 kts 33°
2026-05-04 23:10 34.16084 -80.60343 35035 ft 474 kts 33°
2026-05-04 23:11 34.21247 -80.55456 35034 ft 473 kts 33°
2026-05-04 23:11 34.26421 -80.50561 35031 ft 473 kts 33°
2026-05-04 23:12 34.31652 -80.45692 35033 ft 472 kts 32°
2026-05-04 23:12 34.36865 -80.40903 35027 ft 473 kts 32°
2026-05-04 23:13 34.42099 -80.36091 35026 ft 473 kts 32°
2026-05-04 23:13 34.47353 -80.31245 35025 ft 474 kts 33°
2026-05-04 23:14 34.52596 -80.26389 35024 ft 474 kts 33°
2026-05-04 23:14 34.57835 -80.21529 35024 ft 475 kts 33°
2026-05-04 23:15 34.63106 -80.16629 35022 ft 475 kts 33°
2026-05-04 23:15 34.68345 -80.11748 35022 ft 474 kts 33°
2026-05-04 23:16 34.73580 -80.06870 35026 ft 474 kts 32°
2026-05-04 23:16 34.78810 -80.02003 35024 ft 474 kts 33°
2026-05-04 23:17 34.84056 -79.97167 35023 ft 474 kts 31°
2026-05-04 23:17 34.89399 -79.92442 35021 ft 474 kts 31°
2026-05-04 23:18 34.94757 -79.87754 35022 ft 473 kts 31°
2026-05-04 23:18 35.00092 -79.83067 35023 ft 473 kts 31°
2026-05-04 23:19 35.05417 -79.78367 35019 ft 473 kts 31°
2026-05-04 23:19 35.10750 -79.73640 35019 ft 473 kts 31°
2026-05-04 23:20 35.16089 -79.68893 35020 ft 474 kts 31°
2026-05-04 23:20 35.21448 -79.64244 35020 ft 473 kts 30°
2026-05-04 23:21 35.26853 -79.59648 35016 ft 472 kts 29°
2026-05-04 23:21 35.32220 -79.55085 35014 ft 472 kts 29°
2026-05-04 23:22 35.37606 -79.50486 35012 ft 473 kts 29°
2026-05-04 23:22 35.43018 -79.45844 35009 ft 473 kts 29°
2026-05-04 23:23 35.48371 -79.41242 35006 ft 472 kts 29°
2026-05-04 23:23 35.53780 -79.36581 35003 ft 474 kts 29°
2026-05-04 23:24 35.59158 -79.31939 35008 ft 474 kts 30°
2026-05-04 23:24 35.64534 -79.27288 35008 ft 474 kts 30°
2026-05-04 23:25 35.69942 -79.22604 35005 ft 474 kts 30°
2026-05-04 23:25 35.75286 -79.17964 35000 ft 472 kts 30°
2026-05-04 23:26 35.80646 -79.13306 34999 ft 471 kts 30°
2026-05-04 23:26 35.85996 -79.08652 34994 ft 471 kts 30°
2026-05-04 23:27 35.91362 -79.03976 34996 ft 471 kts 30°
2026-05-04 23:27 35.96708 -78.99309 34997 ft 471 kts 30°
2026-05-04 23:28 36.02048 -78.94641 34998 ft 472 kts 30°
2026-05-04 23:28 36.07374 -78.89976 34999 ft 473 kts 30°
2026-05-04 23:29 36.12746 -78.85262 35002 ft 470 kts 30°
2026-05-04 23:29 36.18075 -78.80575 34997 ft 470 kts 30°
2026-05-04 23:30 36.23409 -78.75878 34995 ft 471 kts 30°
2026-05-04 23:30 36.28721 -78.71195 34994 ft 470 kts 30°
2026-05-04 23:31 36.34020 -78.66512 34990 ft 469 kts 30°
2026-05-04 23:31 36.39332 -78.61809 34988 ft 469 kts 30°
2026-05-04 23:32 36.44651 -78.57097 34991 ft 469 kts 29°
2026-05-04 23:32 36.50035 -78.52637 34983 ft 465 kts 26°
2026-05-04 23:33 36.55509 -78.48411 34983 ft 465 kts 25°
2026-05-04 23:33 36.60989 -78.44204 34975 ft 462 kts 25°
2026-05-04 23:34 36.66425 -78.39991 34978 ft 464 kts 26°
2026-05-04 23:34 36.71896 -78.35714 34976 ft 463 kts 26°
2026-05-04 23:35 36.77325 -78.31441 34982 ft 461 kts 27°
2026-05-04 23:35 36.82746 -78.27162 34971 ft 460 kts 27°
2026-05-04 23:36 36.88126 -78.22906 34975 ft 462 kts 27°
2026-05-04 23:36 36.93567 -78.18597 34973 ft 461 kts 27°
2026-05-04 23:37 36.98961 -78.14314 34970 ft 461 kts 27°
2026-05-04 23:37 37.04377 -78.10007 34974 ft 461 kts 27°
2026-05-04 23:38 37.09784 -78.05699 34967 ft 459 kts 27°
2026-05-04 23:38 37.15171 -78.01399 34969 ft 458 kts 27°
2026-05-04 23:39 37.20547 -77.97104 34970 ft 459 kts 27°
2026-05-04 23:39 37.25916 -77.92806 34960 ft 459 kts 27°
2026-05-04 23:40 37.31310 -77.88480 34957 ft 459 kts 27°
2026-05-04 23:40 37.36659 -77.84180 34953 ft 457 kts 27°
2026-05-04 23:41 37.42029 -77.79857 34953 ft 457 kts 27°
2026-05-04 23:41 37.47346 -77.75571 34950 ft 457 kts 27°
2026-05-04 23:42 37.52700 -77.71248 34947 ft 457 kts 27°
2026-05-04 23:42 37.58090 -77.66898 34950 ft 459 kts 28°
2026-05-04 23:43 37.63426 -77.62587 34952 ft 456 kts 27°
2026-05-04 23:43 37.68756 -77.58276 34953 ft 456 kts 27°
2026-05-04 23:44 37.74080 -77.53959 34947 ft 455 kts 28°
2026-05-04 23:44 37.79400 -77.49641 34946 ft 457 kts 28°
2026-05-04 23:45 37.84733 -77.45302 34936 ft 455 kts 28°
2026-05-04 23:45 37.90055 -77.40965 34931 ft 456 kts 28°
2026-05-04 23:46 37.95366 -77.36629 34927 ft 454 kts 28°
2026-05-04 23:46 38.00722 -77.32249 34927 ft 454 kts 29°
2026-05-04 23:47 38.06027 -77.27908 34923 ft 453 kts 29°
2026-05-04 23:47 38.11324 -77.23570 34922 ft 453 kts 29°
2026-05-04 23:48 38.16598 -77.19241 34924 ft 453 kts 29°
2026-05-04 23:48 38.21927 -77.14860 34918 ft 453 kts 29°
2026-05-04 23:49 38.27240 -77.10484 34919 ft 453 kts 29°
2026-05-04 23:49 38.32443 -77.06023 34919 ft 454 kts 32°
2026-05-04 23:50 38.37501 -77.01168 34913 ft 455 kts 34°
2026-05-04 23:50 38.42486 -76.96255 34913 ft 454 kts 34°
2026-05-04 23:51 38.47478 -76.91353 34909 ft 455 kts 33°
2026-05-04 23:51 38.52485 -76.86467 34912 ft 454 kts 33°
2026-05-04 23:52 38.57526 -76.81565 34911 ft 455 kts 33°
2026-05-04 23:52 38.62557 -76.76674 34914 ft 455 kts 33°
2026-05-04 23:53 38.67607 -76.71761 34908 ft 453 kts 33°
2026-05-04 23:53 38.72609 -76.66891 34913 ft 453 kts 33°
2026-05-04 23:54 38.77610 -76.62015 34916 ft 453 kts 33°
2026-05-04 23:54 38.82632 -76.57109 34919 ft 453 kts 33°
2026-05-04 23:55 38.87636 -76.52211 34915 ft 452 kts 33°
2026-05-04 23:56 38.95106 -76.44878 34585 ft 447 kts 33°
2026-05-04 23:56 38.97551 -76.42471 34102 ft 444 kts 33°
2026-05-04 23:56 38.99974 -76.40085 33468 ft 445 kts 33°
2026-05-04 23:56 39.02450 -76.37650 32739 ft 448 kts 34°
2026-05-04 23:57 39.04884 -76.35159 31976 ft 452 kts 37°
2026-05-04 23:57 39.07238 -76.32528 31454 ft 448 kts 39°
2026-05-04 23:57 39.09543 -76.29826 30936 ft 445 kts 40°
2026-05-04 23:57 39.11795 -76.27137 30382 ft 441 kts 41°
2026-05-04 23:58 39.14014 -76.24477 29838 ft 437 kts 40°
2026-05-04 23:58 39.16258 -76.21790 29305 ft 432 kts 40°
2026-05-04 23:58 39.18429 -76.19199 28791 ft 427 kts 40°
2026-05-04 23:58 39.20596 -76.16624 28278 ft 423 kts 40°
2026-05-04 23:59 39.22755 -76.14066 27762 ft 418 kts 40°
2026-05-04 23:59 39.24889 -76.11546 27253 ft 414 kts 40°
2026-05-04 23:59 39.26991 -76.09068 26913 ft 408 kts 40°
2026-05-04 23:59 39.29085 -76.06601 26920 ft 411 kts 40°
2026-05-05 00:00 39.31203 -76.04112 26913 ft 418 kts 39°
2026-05-05 00:00 39.31917 -76.03273 26910 ft 418 kts 39°
2026-05-05 00:00 39.35483 -75.99075 26908 ft 416 kts 39°
2026-05-05 00:00 39.37634 -75.96540 26912 ft 416 kts 39°
2026-05-05 00:01 39.39764 -75.94029 26908 ft 416 kts 39°
2026-05-05 00:01 39.41876 -75.91535 26908 ft 416 kts 39°
2026-05-05 00:01 39.44015 -75.89008 26910 ft 416 kts 39°
2026-05-05 00:01 39.46167 -75.86465 26911 ft 417 kts 39°
2026-05-05 00:02 39.48286 -75.83958 26909 ft 416 kts 39°
2026-05-05 00:02 39.50418 -75.81434 26846 ft 416 kts 39°
2026-05-05 00:02 39.52547 -75.78909 26353 ft 414 kts 39°
2026-05-05 00:02 39.54634 -75.76430 25851 ft 409 kts 39°
2026-05-05 00:03 39.56726 -75.73943 25348 ft 405 kts 39°
2026-05-05 00:03 39.58777 -75.71502 24850 ft 401 kts 39°
2026-05-05 00:03 39.60834 -75.69052 24347 ft 397 kts 39°
2026-05-05 00:03 39.62852 -75.66647 23857 ft 393 kts 39°
2026-05-05 00:04 39.64845 -75.64271 23355 ft 389 kts 38°
2026-05-05 00:04 39.66809 -75.61928 22889 ft 385 kts 38°
2026-05-05 00:04 39.68773 -75.59582 22401 ft 382 kts 38°
2026-05-05 00:04 39.70723 -75.57244 21920 ft 378 kts 39°
2026-05-05 00:05 39.72638 -75.54942 21440 ft 375 kts 38°
2026-05-05 00:05 39.74532 -75.52660 20970 ft 378 kts 39°
2026-05-05 00:05 39.76491 -75.50301 20473 ft 382 kts 38°
2026-05-05 00:05 39.78429 -75.47964 19986 ft 383 kts 38°
2026-05-05 00:06 39.80366 -75.45624 19487 ft 383 kts 38°
2026-05-05 00:06 39.82310 -75.43272 18986 ft 383 kts 38°
2026-05-05 00:06 39.84256 -75.40916 18481 ft 380 kts 38°
2026-05-05 00:06 39.86168 -75.38597 17979 ft 380 kts 38°
2026-05-05 00:07 39.88121 -75.36230 17376 ft 382 kts 38°
2026-05-05 00:07 39.90055 -75.33886 16899 ft 378 kts 39°
2026-05-05 00:07 39.91969 -75.31561 16449 ft 373 kts 39°
2026-05-05 00:07 39.93850 -75.29274 15971 ft 370 kts 39°
2026-05-05 00:08 39.95709 -75.27014 15487 ft 367 kts 39°
2026-05-05 00:08 39.97575 -75.24745 14992 ft 364 kts 39°
2026-05-05 00:08 39.99409 -75.22512 14508 ft 361 kts 39°
2026-05-05 00:08 40.01245 -75.20275 14021 ft 358 kts 39°
2026-05-05 00:09 40.03034 -75.18094 13552 ft 355 kts 39°
2026-05-05 00:09 40.04840 -75.15891 13081 ft 352 kts 39°
2026-05-05 00:09 40.06600 -75.13741 12612 ft 349 kts 39°
2026-05-05 00:09 40.08374 -75.11574 12138 ft 347 kts 39°
2026-05-05 00:10 40.10120 -75.09440 11677 ft 345 kts 39°
2026-05-05 00:10 40.11874 -75.07293 11208 ft 342 kts 39°
2026-05-05 00:10 40.13581 -75.05204 10983 ft 333 kts 39°
2026-05-05 00:10 40.15247 -75.03159 10771 ft 323 kts 39°
2026-05-05 00:11 40.16875 -75.01161 10460 ft 318 kts 39°
2026-05-05 00:11 40.18445 -74.99234 10250 ft 309 kts 39°
2026-05-05 00:11 40.19990 -74.97334 10147 ft 301 kts 38°
2026-05-05 00:11 40.21524 -74.95452 9870 ft 305 kts 38°
2026-05-05 00:12 40.23080 -74.93547 9441 ft 305 kts 38°
2026-05-05 00:12 40.24628 -74.91647 9062 ft 304 kts 39°
2026-05-05 00:12 40.26141 -74.89738 8692 ft 303 kts 41°
2026-05-05 00:12 40.27581 -74.87763 8327 ft 302 kts 43°
2026-05-05 00:13 40.28999 -74.85735 8038 ft 298 kts 44°
2026-05-05 00:13 40.30390 -74.83734 8030 ft 298 kts 44°
2026-05-05 00:13 40.31802 -74.81722 7842 ft 301 kts 43°
2026-05-05 00:13 40.33218 -74.79719 7599 ft 298 kts 43°
2026-05-05 00:14 40.34612 -74.77755 7358 ft 298 kts 43°
2026-05-05 00:14 40.36031 -74.75761 7112 ft 298 kts 43°
2026-05-05 00:14 40.37441 -74.73778 6866 ft 296 kts 44°
2026-05-05 00:14 40.38849 -74.71797 6620 ft 295 kts 44°
2026-05-05 00:15 40.40245 -74.69830 6392 ft 294 kts 44°
2026-05-05 00:15 40.41666 -74.67937 6136 ft 292 kts 38°
2026-05-05 00:15 40.43329 -74.66528 6017 ft 283 kts 16°
2026-05-05 00:15 40.45224 -74.65886 6012 ft 281 kts
2026-05-05 00:16 40.47155 -74.65482 6007 ft 281 kts
2026-05-05 00:16 40.49097 -74.65076 6009 ft 280 kts
2026-05-05 00:16 40.51012 -74.64620 6007 ft 280 kts
2026-05-05 00:16 40.52928 -74.64124 6004 ft 282 kts
2026-05-05 00:17 40.54860 -74.63605 6005 ft 282 kts
2026-05-05 00:17 40.56782 -74.63085 6005 ft 281 kts
2026-05-05 00:17 40.58699 -74.62566 6007 ft 281 kts
2026-05-05 00:17 40.60610 -74.62053 6007 ft 281 kts
2026-05-05 00:18 40.62538 -74.61536 6004 ft 282 kts
2026-05-05 00:18 40.64458 -74.61022 6001 ft 282 kts
2026-05-05 00:18 40.66385 -74.60506 5792 ft 285 kts
2026-05-05 00:18 40.68335 -74.59983 5544 ft 281 kts
2026-05-05 00:19 40.70245 -74.59469 5302 ft 281 kts
2026-05-05 00:19 40.72156 -74.58955 5071 ft 283 kts
2026-05-05 00:19 40.74073 -74.58439 5013 ft 281 kts
2026-05-05 00:19 40.76000 -74.57921 5006 ft 283 kts
2026-05-05 00:20 40.77949 -74.57372 5000 ft 284 kts 12°
2026-05-05 00:20 40.79689 -74.56162 5014 ft 290 kts 38°
2026-05-05 00:20 40.81127 -74.54255 5012 ft 292 kts 46°
2026-05-05 00:20 40.82450 -74.52261 5013 ft 291 kts 47°
2026-05-05 00:21 40.83769 -74.50235 5014 ft 292 kts 47°
2026-05-05 00:21 40.85097 -74.48189 5009 ft 293 kts 47°
2026-05-05 00:21 40.86415 -74.46162 5012 ft 291 kts 47°
2026-05-05 00:21 40.87732 -74.44132 5015 ft 291 kts 47°
2026-05-05 00:22 40.89046 -74.42100 5015 ft 292 kts 47°
2026-05-05 00:22 40.90365 -74.40060 5014 ft 291 kts 47°
2026-05-05 00:22 40.91687 -74.38020 5016 ft 291 kts 47°
2026-05-05 00:22 40.93007 -74.35986 5016 ft 290 kts 47°
2026-05-05 00:23 40.94315 -74.33973 5015 ft 290 kts 49°
2026-05-05 00:23 40.95355 -74.31677 5012 ft 293 kts 74°
2026-05-05 00:23 40.95476 -74.29035 5022 ft 289 kts 101°
2026-05-05 00:23 40.95050 -74.26461 5010 ft 289 kts 107°
2026-05-05 00:24 40.94528 -74.23910 5014 ft 288 kts 108°
2026-05-05 00:24 40.93989 -74.21362 5011 ft 285 kts 108°
2026-05-05 00:24 40.93469 -74.18911 5066 ft 268 kts 107°
2026-05-05 00:24 40.92965 -74.16549 4875 ft 263 kts 108°
2026-05-05 00:25 40.92472 -74.14228 4546 ft 263 kts 108°
2026-05-05 00:25 40.91991 -74.11912 4250 ft 259 kts 108°
2026-05-05 00:25 40.91540 -74.09644 4004 ft 253 kts 108°
2026-05-05 00:25 40.91118 -74.07435 3763 ft 248 kts 108°
2026-05-05 00:26 40.90601 -74.05317 3507 ft 237 kts 125°
2026-05-05 00:26 40.89458 -74.03931 3264 ft 216 kts 165°
2026-05-05 00:26 40.88060 -74.03893 3046 ft 200 kts 206°
2026-05-05 00:26 40.86950 -74.04985 3014 ft 199 kts 221°
2026-05-05 00:27 40.85804 -74.06007 3009 ft 199 kts 210°
2026-05-05 00:27 40.84597 -74.06754 3014 ft 186 kts 206°
2026-05-05 00:27 40.83427 -74.07461 2957 ft 186 kts 207°
2026-05-05 00:27 40.82276 -74.08198 2712 ft 181 kts 208°
2026-05-05 00:28 40.81158 -74.08916 2471 ft 177 kts 208°
2026-05-05 00:28 40.80055 -74.09617 2235 ft 173 kts 208°
2026-05-05 00:28 40.78998 -74.10290 2004 ft 169 kts 208°
2026-05-05 00:28 40.77961 -74.10948 1777 ft 156 kts 207°
2026-05-05 00:29 40.77032 -74.11535 1623 ft 139 kts 207°
2026-05-05 00:29 40.76179 -74.12082 1401 ft 137 kts 207°
2026-05-05 00:29 40.75318 -74.12630 1229 ft 138 kts 207°
2026-05-05 00:29 40.74443 -74.13182 1031 ft 138 kts 207°
2026-05-05 00:30 40.73579 -74.13731 854 ft 137 kts 206°
2026-05-05 00:30 40.72713 -74.14269 658 ft 139 kts 207°
2026-05-05 00:30 40.71833 -74.14833 496 ft 138 kts 206°
2026-05-05 00:30 40.70971 -74.15384 299 ft 140 kts 206°
2026-05-05 00:31 40.70080 -74.15945 109 ft 142 kts 206°
2026-05-05 00:31 40.69218 -74.16499 27 ft 115 kts 206°
2026-05-05 00:31 40.68733 -74.16806 27 ft 44 kts 206°
2026-05-05 00:31 40.68565 -74.16943 27 ft 24 kts 224°
2026-05-05 00:32 40.68481 -74.17104 27 ft 16 kts 235°
2026-05-05 00:32 40.68443 -74.17233 27 ft 15 kts 281°
2026-05-05 00:32 40.68486 -74.17358 27 ft 14 kts 295°
2026-05-05 00:32 40.68540 -74.17467 27 ft 14 kts 326°
2026-05-05 00:33 40.68622 -74.17527 27 ft 15 kts
2026-05-05 00:33 40.68737 -74.17462 27 ft 21 kts 26°
2026-05-05 00:33 40.68885 -74.17369 27 ft 24 kts 25°
2026-05-05 00:33 40.69038 -74.17274 27 ft 23 kts 26°
2026-05-05 00:34 40.69185 -74.17180 27 ft 23 kts 26°
2026-05-05 00:34 40.69332 -74.17092 27 ft 22 kts 18°
2026-05-05 00:34 40.69496 -74.17077 27 ft 24 kts 352°
2026-05-05 00:34 40.69658 -74.17139 27 ft 23 kts 335°
2026-05-05 00:35 40.69755 -74.17223 27 ft 13 kts 318°
2026-05-05 00:35 40.69783 -74.17300 27 ft 9 kts 249°
2026-05-05 00:35 40.69738 -74.17355 27 ft 8 kts 218°
2026-05-05 00:35 40.69695 -74.17401 27 ft 6 kts 231°
2026-05-05 00:36 40.69696 -74.17439 27 ft 3 kts 296°
2026-05-05 00:36 40.69708 -74.17463 27 ft 1 kts 304°
2026-05-05 00:36 40.69711 -74.17469 27 ft 0 kts 304°